segment_id,date_local,uptime,ped_lft,ped_rgt,ped_total,bike_lft,bike_rgt,bike_total,car_lft,car_rgt,car_total,heavy_lft,heavy_rgt,heavy_total,v85,car_speed0,car_speed10,car_speed20,car_speed30,car_speed40,car_speed50,car_speed60,car_speed70
100024661,2020-01-01 00:00,1.0,,,,12,15,27,,,,,,,
100024661,2020-01-01 01:00,1.0,,,,15,18,33,,,,,,,
100024661,2020-01-01 02:00,1.0,,,,16,29,45,,,,,,,
100024661,2020-01-01 03:00,1.0,,,,25,22,47,,,,,,,
100024661,2020-01-01 04:00,1.0,,,,21,11,32,,,,,,,
100024661,2020-01-01 05:00,1.0,,,,16,9,25,,,,,,,
100024661,2020-01-01 06:00,1.0,,,,8,12,20,,,,,,,
100024661,2020-01-01 07:00,1.0,,,,13,11,24,,,,,,,
100024661,2020-01-01 08:00,1.0,,,,11,8,19,,,,,,,
100024661,2020-01-01 09:00,1.0,,,,12,9,21,,,,,,,
100024661,2020-01-01 10:00,1.0,,,,14,9,23,,,,,,,
100024661,2020-01-01 11:00,1.0,,,,16,11,27,,,,,,,
100024661,2020-01-01 12:00,1.0,,,,18,27,45,,,,,,,
100024661,2020-01-01 13:00,1.0,,,,34,39,73,,,,,,,
100024661,2020-01-01 14:00,1.0,,,,45,43,88,,,,,,,
100024661,2020-01-01 15:00,1.0,,,,46,62,108,,,,,,,
100024661,2020-01-01 16:00,1.0,,,,48,36,84,,,,,,,
100024661,2020-01-01 17:00,1.0,,,,40,48,88,,,,,,,
100024661,2020-01-01 18:00,1.0,,,,54,42,96,,,,,,,
100024661,2020-01-01 19:00,1.0,,,,40,35,75,,,,,,,
100024661,2020-01-01 20:00,1.0,,,,18,36,54,,,,,,,
100024661,2020-01-01 21:00,1.0,,,,25,24,49,,,,,,,
100024661,2020-01-01 22:00,1.0,,,,18,32,50,,,,,,,
100024661,2020-01-01 23:00,1.0,,,,14,15,29,,,,,,,
100024661,2020-01-02 00:00,1.0,,,,16,7,23,,,,,,,
100024661,2020-01-02 01:00,1.0,,,,4,9,13,,,,,,,
100024661,2020-01-02 02:00,1.0,,,,1,6,7,,,,,,,
100024661,2020-01-02 03:00,1.0,,,,2,1,3,,,,,,,
100024661,2020-01-02 04:00,1.0,,,,3,3,6,,,,,,,
100024661,2020-01-02 05:00,1.0,,,,8,12,20,,,,,,,
100024661,2020-01-02 06:00,1.0,,,,19,65,84,,,,,,,
100024661,2020-01-02 07:00,1.0,,,,43,89,132,,,,,,,
100024661,2020-01-02 08:00,1.0,,,,100,224,324,,,,,,,
100024661,2020-01-02 09:00,1.0,,,,136,194,330,,,,,,,
100024661,2020-01-02 10:00,1.0,,,,80,104,184,,,,,,,
100024661,2020-01-02 11:00,1.0,,,,86,75,161,,,,,,,
100024661,2020-01-02 12:00,1.0,,,,93,88,181,,,,,,,
100024661,2020-01-02 13:00,1.0,,,,103,134,237,,,,,,,
100024661,2020-01-02 14:00,1.0,,,,121,132,253,,,,,,,
100024661,2020-01-02 15:00,1.0,,,,181,151,332,,,,,,,
100024661,2020-01-02 16:00,1.0,,,,208,131,339,,,,,,,
100024661,2020-01-02 17:00,1.0,,,,234,178,412,,,,,,,
100024661,2020-01-02 18:00,1.0,,,,216,157,373,,,,,,,
100024661,2020-01-02 19:00,1.0,,,,90,139,229,,,,,,,
100024661,2020-01-02 20:00,1.0,,,,90,72,162,,,,,,,
100024661,2020-01-02 21:00,1.0,,,,38,52,90,,,,,,,
100024661,2020-01-02 22:00,1.0,,,,46,37,83,,,,,,,
100024661,2020-01-02 23:00,1.0,,,,30,28,58,,,,,,,
100024661,2020-01-03 00:00,1.0,,,,25,15,40,,,,,,,
100024661,2020-01-03 01:00,1.0,,,,25,9,34,,,,,,,
100024661,2020-01-03 02:00,1.0,,,,9,7,16,,,,,,,
100024661,2020-01-03 03:00,1.0,,,,5,1,6,,,,,,,
100024661,2020-01-03 04:00,1.0,,,,7,3,10,,,,,,,
100024661,2020-01-03 05:00,1.0,,,,14,18,32,,,,,,,
100024661,2020-01-03 06:00,1.0,,,,25,59,84,,,,,,,
100024661,2020-01-03 07:00,1.0,,,,42,73,115,,,,,,,
100024661,2020-01-03 08:00,1.0,,,,105,192,297,,,,,,,
100024661,2020-01-03 09:00,1.0,,,,135,205,340,,,,,,,
100024661,2020-01-03 10:00,1.0,,,,100,98,198,,,,,,,
100024661,2020-01-03 11:00,1.0,,,,106,76,182,,,,,,,
100024661,2020-01-03 12:00,1.0,,,,86,122,208,,,,,,,
100024661,2020-01-03 13:00,1.0,,,,118,124,242,,,,,,,
100024661,2020-01-03 14:00,1.0,,,,152,126,278,,,,,,,
100024661,2020-01-03 15:00,1.0,,,,159,162,321,,,,,,,
100024661,2020-01-03 16:00,1.0,,,,145,130,275,,,,,,,
100024661,2020-01-03 17:00,1.0,,,,176,120,296,,,,,,,
100024661,2020-01-03 18:00,1.0,,,,160,132,292,,,,,,,
100024661,2020-01-03 19:00,1.0,,,,92,80,172,,,,,,,
100024661,2020-01-03 20:00,1.0,,,,51,65,116,,,,,,,
100024661,2020-01-03 21:00,1.0,,,,39,40,79,,,,,,,
100024661,2020-01-03 22:00,1.0,,,,31,24,55,,,,,,,
100024661,2020-01-03 23:00,1.0,,,,20,22,42,,,,,,,
100024661,2020-01-04 00:00,1.0,,,,16,21,37,,,,,,,
100024661,2020-01-04 01:00,1.0,,,,9,20,29,,,,,,,
100024661,2020-01-04 02:00,1.0,,,,9,4,13,,,,,,,
100024661,2020-01-04 03:00,1.0,,,,9,2,11,,,,,,,
100024661,2020-01-04 04:00,1.0,,,,7,5,12,,,,,,,
100024661,2020-01-04 05:00,1.0,,,,6,3,9,,,,,,,
100024661,2020-01-04 06:00,1.0,,,,6,9,15,,,,,,,
100024661,2020-01-04 07:00,1.0,,,,15,10,25,,,,,,,
100024661,2020-01-04 08:00,1.0,,,,27,14,41,,,,,,,
100024661,2020-01-04 09:00,1.0,,,,55,39,94,,,,,,,
100024661,2020-01-04 10:00,1.0,,,,47,55,102,,,,,,,
100024661,2020-01-04 11:00,1.0,,,,61,53,114,,,,,,,
100024661,2020-01-04 12:00,1.0,,,,48,59,107,,,,,,,
100024661,2020-01-04 13:00,1.0,,,,77,61,138,,,,,,,
100024661,2020-01-04 14:00,1.0,,,,39,66,105,,,,,,,
100024661,2020-01-04 15:00,1.0,,,,79,86,165,,,,,,,
100024661,2020-01-04 16:00,1.0,,,,67,90,157,,,,,,,
100024661,2020-01-04 17:00,1.0,,,,74,92,166,,,,,,,
100024661,2020-01-04 18:00,1.0,,,,68,87,155,,,,,,,
100024661,2020-01-04 19:00,1.0,,,,62,79,141,,,,,,,
100024661,2020-01-04 20:00,1.0,,,,52,73,125,,,,,,,
100024661,2020-01-04 21:00,1.0,,,,45,58,103,,,,,,,
100024661,2020-01-04 22:00,1.0,,,,39,35,74,,,,,,,
100024661,2020-01-04 23:00,1.0,,,,30,30,60,,,,,,,
100024661,2020-01-05 00:00,1.0,,,,31,22,53,,,,,,,
100024661,2020-01-05 01:00,1.0,,,,19,20,39,,,,,,,
100024661,2020-01-05 02:00,1.0,,,,14,21,35,,,,,,,
100024661,2020-01-05 03:00,1.0,,,,15,7,22,,,,,,,
100024661,2020-01-05 04:00,1.0,,,,7,6,13,,,,,,,
100024661,2020-01-05 05:00,1.0,,,,15,5,20,,,,,,,
100024661,2020-01-05 06:00,1.0,,,,7,1,8,,,,,,,
100024661,2020-01-05 07:00,1.0,,,,5,3,8,,,,,,,
100024661,2020-01-05 08:00,1.0,,,,18,7,25,,,,,,,
100024661,2020-01-05 09:00,1.0,,,,27,31,58,,,,,,,
100024661,2020-01-05 10:00,1.0,,,,48,39,87,,,,,,,
100024661,2020-01-05 11:00,1.0,,,,71,42,113,,,,,,,
100024661,2020-01-05 12:00,1.0,,,,79,77,156,,,,,,,
100024661,2020-01-05 13:00,1.0,,,,90,77,167,,,,,,,
100024661,2020-01-05 14:00,1.0,,,,82,111,193,,,,,,,
100024661,2020-01-05 15:00,1.0,,,,114,117,231,,,,,,,
100024661,2020-01-05 16:00,1.0,,,,112,95,207,,,,,,,
100024661,2020-01-05 17:00,1.0,,,,79,88,167,,,,,,,
100024661,2020-01-05 18:00,1.0,,,,77,93,170,,,,,,,
100024661,2020-01-05 19:00,1.0,,,,83,87,170,,,,,,,
100024661,2020-01-05 20:00,1.0,,,,45,55,100,,,,,,,
100024661,2020-01-05 21:00,1.0,,,,32,72,104,,,,,,,
100024661,2020-01-05 22:00,1.0,,,,31,32,63,,,,,,,
100024661,2020-01-05 23:00,1.0,,,,26,20,46,,,,,,,
100024661,2020-01-06 00:00,1.0,,,,12,13,25,,,,,,,
100024661,2020-01-06 01:00,1.0,,,,10,0,10,,,,,,,
100024661,2020-01-06 02:00,1.0,,,,2,4,6,,,,,,,
100024661,2020-01-06 03:00,1.0,,,,2,3,5,,,,,,,
100024661,2020-01-06 04:00,1.0,,,,3,4,7,,,,,,,
100024661,2020-01-06 05:00,1.0,,,,10,23,33,,,,,,,
100024661,2020-01-06 06:00,1.0,,,,35,84,119,,,,,,,
100024661,2020-01-06 07:00,1.0,,,,116,243,359,,,,,,,
100024661,2020-01-06 08:00,1.0,,,,322,689,1011,,,,,,,
100024661,2020-01-06 09:00,1.0,,,,352,456,808,,,,,,,
100024661,2020-01-06 10:00,1.0,,,,122,167,289,,,,,,,
100024661,2020-01-06 11:00,1.0,,,,127,150,277,,,,,,,
100024661,2020-01-06 12:00,1.0,,,,112,134,246,,,,,,,
100024661,2020-01-06 13:00,1.0,,,,156,146,302,,,,,,,
100024661,2020-01-06 14:00,1.0,,,,199,153,352,,,,,,,
100024661,2020-01-06 15:00,1.0,,,,316,212,528,,,,,,,
100024661,2020-01-06 16:00,1.0,,,,320,230,550,,,,,,,
100024661,2020-01-06 17:00,1.0,,,,477,303,780,,,,,,,
100024661,2020-01-06 18:00,1.0,,,,520,376,896,,,,,,,
100024661,2020-01-06 19:00,1.0,,,,270,221,491,,,,,,,
100024661,2020-01-06 20:00,1.0,,,,126,122,248,,,,,,,
100024661,2020-01-06 21:00,1.0,,,,98,89,187,,,,,,,
100024661,2020-01-06 22:00,1.0,,,,87,65,152,,,,,,,
100024661,2020-01-06 23:00,1.0,,,,31,44,75,,,,,,,
100024661,2020-01-07 00:00,1.0,,,,14,20,34,,,,,,,
100024661,2020-01-07 01:00,1.0,,,,10,8,18,,,,,,,
100024661,2020-01-07 02:00,1.0,,,,6,6,12,,,,,,,
100024661,2020-01-07 03:00,1.0,,,,2,1,3,,,,,,,
100024661,2020-01-07 04:00,1.0,,,,3,3,6,,,,,,,
100024661,2020-01-07 05:00,1.0,,,,9,24,33,,,,,,,
100024661,2020-01-07 06:00,1.0,,,,33,86,119,,,,,,,
100024661,2020-01-07 07:00,1.0,,,,113,275,388,,,,,,,
100024661,2020-01-07 08:00,1.0,,,,360,688,1048,,,,,,,
100024661,2020-01-07 09:00,1.0,,,,341,535,876,,,,,,,
100024661,2020-01-07 10:00,1.0,,,,146,196,342,,,,,,,
100024661,2020-01-07 11:00,1.0,,,,113,130,243,,,,,,,
100024661,2020-01-07 12:00,1.0,,,,122,103,225,,,,,,,
100024661,2020-01-07 13:00,1.0,,,,113,99,212,,,,,,,
100024661,2020-01-07 14:00,1.0,,,,193,137,330,,,,,,,
100024661,2020-01-07 15:00,1.0,,,,270,202,472,,,,,,,
100024661,2020-01-07 16:00,1.0,,,,327,209,536,,,,,,,
100024661,2020-01-07 17:00,1.0,,,,491,278,769,,,,,,,
100024661,2020-01-07 18:00,1.0,,,,526,412,938,,,,,,,
100024661,2020-01-07 19:00,1.0,,,,278,242,520,,,,,,,
100024661,2020-01-07 20:00,1.0,,,,145,152,297,,,,,,,
100024661,2020-01-07 21:00,1.0,,,,99,96,195,,,,,,,
100024661,2020-01-07 22:00,1.0,,,,94,76,170,,,,,,,
100024661,2020-01-07 23:00,1.0,,,,42,43,85,,,,,,,
100024661,2020-01-08 00:00,1.0,,,,23,17,40,,,,,,,
100024661,2020-01-08 01:00,1.0,,,,5,8,13,,,,,,,
100024661,2020-01-08 02:00,1.0,,,,8,3,11,,,,,,,
100024661,2020-01-08 03:00,1.0,,,,1,1,2,,,,,,,
100024661,2020-01-08 04:00,1.0,,,,4,3,7,,,,,,,
100024661,2020-01-08 05:00,1.0,,,,14,20,34,,,,,,,
100024661,2020-01-08 06:00,1.0,,,,41,76,117,,,,,,,
100024661,2020-01-08 07:00,1.0,,,,111,225,336,,,,,,,
100024661,2020-01-08 08:00,1.0,,,,295,584,879,,,,,,,
100024661,2020-01-08 09:00,1.0,,,,275,414,689,,,,,,,
100024661,2020-01-08 10:00,1.0,,,,123,184,307,,,,,,,
100024661,2020-01-08 11:00,1.0,,,,92,107,199,,,,,,,
100024661,2020-01-08 12:00,1.0,,,,123,140,263,,,,,,,
100024661,2020-01-08 13:00,1.0,,,,126,139,265,,,,,,,
100024661,2020-01-08 14:00,1.0,,,,163,118,281,,,,,,,
100024661,2020-01-08 15:00,1.0,,,,303,162,465,,,,,,,
100024661,2020-01-08 16:00,1.0,,,,294,189,483,,,,,,,
100024661,2020-01-08 17:00,1.0,,,,409,259,668,,,,,,,
100024661,2020-01-08 18:00,1.0,,,,473,363,836,,,,,,,
100024661,2020-01-08 19:00,1.0,,,,280,277,557,,,,,,,
100024661,2020-01-08 20:00,1.0,,,,125,136,261,,,,,,,
100024661,2020-01-08 21:00,1.0,,,,112,91,203,,,,,,,
100024661,2020-01-08 22:00,1.0,,,,80,104,184,,,,,,,
100024661,2020-01-08 23:00,1.0,,,,50,61,111,,,,,,,
100024661,2020-01-09 00:00,1.0,,,,28,32,60,,,,,,,
100024661,2020-01-09 01:00,1.0,,,,3,12,15,,,,,,,
100024661,2020-01-09 02:00,1.0,,,,8,10,18,,,,,,,
100024661,2020-01-09 03:00,1.0,,,,2,5,7,,,,,,,
100024661,2020-01-09 04:00,1.0,,,,4,7,11,,,,,,,
100024661,2020-01-09 05:00,1.0,,,,8,11,19,,,,,,,
100024661,2020-01-09 06:00,1.0,,,,36,73,109,,,,,,,
100024661,2020-01-09 07:00,1.0,,,,101,207,308,,,,,,,
100024661,2020-01-09 08:00,1.0,,,,300,622,922,,,,,,,
100024661,2020-01-09 09:00,1.0,,,,312,471,783,,,,,,,
100024661,2020-01-09 10:00,1.0,,,,157,192,349,,,,,,,
100024661,2020-01-09 11:00,1.0,,,,116,111,227,,,,,,,
100024661,2020-01-09 12:00,1.0,,,,128,130,258,,,,,,,
100024661,2020-01-09 13:00,1.0,,,,135,147,282,,,,,,,
100024661,2020-01-09 14:00,1.0,,,,169,114,283,,,,,,,
100024661,2020-01-09 15:00,1.0,,,,244,148,392,,,,,,,
100024661,2020-01-09 16:00,1.0,,,,255,152,407,,,,,,,
100024661,2020-01-09 17:00,1.0,,,,417,226,643,,,,,,,
100024661,2020-01-09 18:00,1.0,,,,417,349,766,,,,,,,
100024661,2020-01-09 19:00,1.0,,,,253,221,474,,,,,,,
100024661,2020-01-09 20:00,1.0,,,,127,131,258,,,,,,,
100024661,2020-01-09 21:00,1.0,,,,90,90,180,,,,,,,
100024661,2020-01-09 22:00,1.0,,,,77,91,168,,,,,,,
100024661,2020-01-09 23:00,1.0,,,,44,47,91,,,,,,,
100024661,2020-01-10 00:00,1.0,,,,39,26,65,,,,,,,
100024661,2020-01-10 01:00,1.0,,,,12,14,26,,,,,,,
100024661,2020-01-10 02:00,1.0,,,,2,5,7,,,,,,,
100024661,2020-01-10 03:00,1.0,,,,7,0,7,,,,,,,
100024661,2020-01-10 04:00,1.0,,,,5,11,16,,,,,,,
100024661,2020-01-10 05:00,1.0,,,,9,17,26,,,,,,,
100024661,2020-01-10 06:00,1.0,,,,27,55,82,,,,,,,
100024661,2020-01-10 07:00,1.0,,,,66,132,198,,,,,,,
100024661,2020-01-10 08:00,1.0,,,,199,379,578,,,,,,,
100024661,2020-01-10 09:00,1.0,,,,257,336,593,,,,,,,
100024661,2020-01-10 10:00,1.0,,,,123,178,301,,,,,,,
100024661,2020-01-10 11:00,1.0,,,,124,113,237,,,,,,,
100024661,2020-01-10 12:00,1.0,,,,118,169,287,,,,,,,
100024661,2020-01-10 13:00,1.0,,,,200,159,359,,,,,,,
100024661,2020-01-10 14:00,1.0,,,,233,209,442,,,,,,,
100024661,2020-01-10 15:00,1.0,,,,270,221,491,,,,,,,
100024661,2020-01-10 16:00,1.0,,,,283,200,483,,,,,,,
100024661,2020-01-10 17:00,1.0,,,,303,217,520,,,,,,,
100024661,2020-01-10 18:00,1.0,,,,275,247,522,,,,,,,
100024661,2020-01-10 19:00,1.0,,,,202,179,381,,,,,,,
100024661,2020-01-10 20:00,1.0,,,,121,109,230,,,,,,,
100024661,2020-01-10 21:00,1.0,,,,73,88,161,,,,,,,
100024661,2020-01-10 22:00,1.0,,,,83,71,154,,,,,,,
100024661,2020-01-10 23:00,1.0,,,,41,55,96,,,,,,,
100024661,2020-01-11 00:00,1.0,,,,40,46,86,,,,,,,
100024661,2020-01-11 01:00,1.0,,,,45,47,92,,,,,,,
100024661,2020-01-11 02:00,1.0,,,,21,14,35,,,,,,,
100024661,2020-01-11 03:00,1.0,,,,14,18,32,,,,,,,
100024661,2020-01-11 04:00,1.0,,,,16,11,27,,,,,,,
100024661,2020-01-11 05:00,1.0,,,,11,7,18,,,,,,,
100024661,2020-01-11 06:00,1.0,,,,13,11,24,,,,,,,
100024661,2020-01-11 07:00,1.0,,,,23,19,42,,,,,,,
100024661,2020-01-11 08:00,1.0,,,,32,39,71,,,,,,,
100024661,2020-01-11 09:00,1.0,,,,65,59,124,,,,,,,
100024661,2020-01-11 10:00,1.0,,,,75,62,137,,,,,,,
100024661,2020-01-11 11:00,1.0,,,,106,85,191,,,,,,,
100024661,2020-01-11 12:00,1.0,,,,122,136,258,,,,,,,
100024661,2020-01-11 13:00,1.0,,,,131,149,280,,,,,,,
100024661,2020-01-11 14:00,1.0,,,,152,174,326,,,,,,,
100024661,2020-01-11 15:00,1.0,,,,164,164,328,,,,,,,
100024661,2020-01-11 16:00,1.0,,,,139,163,302,,,,,,,
100024661,2020-01-11 17:00,1.0,,,,129,165,294,,,,,,,
100024661,2020-01-11 18:00,1.0,,,,161,158,319,,,,,,,
100024661,2020-01-11 19:00,1.0,,,,108,125,233,,,,,,,
100024661,2020-01-11 20:00,1.0,,,,69,104,173,,,,,,,
100024661,2020-01-11 21:00,1.0,,,,65,72,137,,,,,,,
100024661,2020-01-11 22:00,1.0,,,,53,66,119,,,,,,,
100024661,2020-01-11 23:00,1.0,,,,54,72,126,,,,,,,
100024661,2020-01-12 00:00,1.0,,,,42,41,83,,,,,,,
100024661,2020-01-12 01:00,1.0,,,,42,38,80,,,,,,,
100024661,2020-01-12 02:00,1.0,,,,32,29,61,,,,,,,
100024661,2020-01-12 03:00,1.0,,,,18,17,35,,,,,,,
100024661,2020-01-12 04:00,1.0,,,,9,13,22,,,,,,,
100024661,2020-01-12 05:00,1.0,,,,8,7,15,,,,,,,
100024661,2020-01-12 06:00,1.0,,,,22,7,29,,,,,,,
100024661,2020-01-12 07:00,1.0,,,,12,9,21,,,,,,,
100024661,2020-01-12 08:00,1.0,,,,24,15,39,,,,,,,
100024661,2020-01-12 09:00,1.0,,,,44,43,87,,,,,,,
100024661,2020-01-12 10:00,1.0,,,,55,60,115,,,,,,,
100024661,2020-01-12 11:00,1.0,,,,67,83,150,,,,,,,
100024661,2020-01-12 12:00,1.0,,,,62,95,157,,,,,,,
100024661,2020-01-12 13:00,1.0,,,,110,114,224,,,,,,,
100024661,2020-01-12 14:00,1.0,,,,126,127,253,,,,,,,
100024661,2020-01-12 15:00,1.0,,,,104,135,239,,,,,,,
100024661,2020-01-12 16:00,1.0,,,,113,131,244,,,,,,,
100024661,2020-01-12 17:00,1.0,,,,135,97,232,,,,,,,
100024661,2020-01-12 18:00,1.0,,,,88,105,193,,,,,,,
100024661,2020-01-12 19:00,1.0,,,,77,59,136,,,,,,,
100024661,2020-01-12 20:00,1.0,,,,64,65,129,,,,,,,
100024661,2020-01-12 21:00,1.0,,,,43,62,105,,,,,,,
100024661,2020-01-12 22:00,1.0,,,,36,52,88,,,,,,,
100024661,2020-01-12 23:00,1.0,,,,23,37,60,,,,,,,
100024661,2020-01-13 00:00,1.0,,,,18,22,40,,,,,,,
100024661,2020-01-13 01:00,1.0,,,,17,13,30,,,,,,,
100024661,2020-01-13 02:00,1.0,,,,7,5,12,,,,,,,
100024661,2020-01-13 03:00,1.0,,,,4,2,6,,,,,,,
100024661,2020-01-13 04:00,1.0,,,,6,4,10,,,,,,,
100024661,2020-01-13 05:00,1.0,,,,12,26,38,,,,,,,
100024661,2020-01-13 06:00,1.0,,,,45,104,149,,,,,,,
100024661,2020-01-13 07:00,1.0,,,,141,260,401,,,,,,,
100024661,2020-01-13 08:00,1.0,,,,339,705,1044,,,,,,,
100024661,2020-01-13 09:00,1.0,,,,374,578,952,,,,,,,
100024661,2020-01-13 10:00,1.0,,,,157,202,359,,,,,,,
100024661,2020-01-13 11:00,1.0,,,,128,127,255,,,,,,,
100024661,2020-01-13 12:00,1.0,,,,160,117,277,,,,,,,
100024661,2020-01-13 13:00,1.0,,,,146,156,302,,,,,,,
100024661,2020-01-13 14:00,1.0,,,,219,164,383,,,,,,,
100024661,2020-01-13 15:00,1.0,,,,270,206,476,,,,,,,
100024661,2020-01-13 16:00,1.0,,,,362,227,589,,,,,,,
100024661,2020-01-13 17:00,1.0,,,,504,321,825,,,,,,,
100024661,2020-01-13 18:00,1.0,,,,559,410,969,,,,,,,
100024661,2020-01-13 19:00,1.0,,,,298,280,578,,,,,,,
100024661,2020-01-13 20:00,1.0,,,,163,159,322,,,,,,,
100024661,2020-01-13 21:00,1.0,,,,140,131,271,,,,,,,
100024661,2020-01-13 22:00,1.0,,,,89,68,157,,,,,,,
100024661,2020-01-13 23:00,1.0,,,,42,48,90,,,,,,,
100024661,2020-01-14 00:00,1.0,,,,25,29,54,,,,,,,
100024661,2020-01-14 01:00,1.0,,,,12,18,30,,,,,,,
100024661,2020-01-14 02:00,1.0,,,,5,8,13,,,,,,,
100024661,2020-01-14 03:00,1.0,,,,5,0,5,,,,,,,
100024661,2020-01-14 04:00,1.0,,,,4,6,10,,,,,,,
100024661,2020-01-14 05:00,1.0,,,,17,33,50,,,,,,,
100024661,2020-01-14 06:00,1.0,,,,40,100,140,,,,,,,
100024661,2020-01-14 07:00,1.0,,,,132,268,400,,,,,,,
100024661,2020-01-14 08:00,1.0,,,,377,747,1124,,,,,,,
100024661,2020-01-14 09:00,1.0,,,,382,517,899,,,,,,,
100024661,2020-01-14 10:00,1.0,,,,172,239,411,,,,,,,
100024661,2020-01-14 11:00,1.0,,,,124,147,271,,,,,,,
100024661,2020-01-14 12:00,1.0,,,,156,161,317,,,,,,,
100024661,2020-01-14 13:00,1.0,,,,167,169,336,,,,,,,
100024661,2020-01-14 14:00,1.0,,,,222,182,404,,,,,,,
100024661,2020-01-14 15:00,1.0,,,,334,242,576,,,,,,,
100024661,2020-01-14 16:00,1.0,,,,339,261,600,,,,,,,
100024661,2020-01-14 17:00,1.0,,,,476,317,793,,,,,,,
100024661,2020-01-14 18:00,1.0,,,,541,448,989,,,,,,,
100024661,2020-01-14 19:00,1.0,,,,334,282,616,,,,,,,
100024661,2020-01-14 20:00,1.0,,,,171,155,326,,,,,,,
100024661,2020-01-14 21:00,1.0,,,,134,123,257,,,,,,,
100024661,2020-01-14 22:00,1.0,,,,121,102,223,,,,,,,
100024661,2020-01-14 23:00,1.0,,,,61,56,117,,,,,,,
100024661,2020-01-15 00:00,1.0,,,,23,30,53,,,,,,,
100024661,2020-01-15 01:00,1.0,,,,11,16,27,,,,,,,
100024661,2020-01-15 02:00,1.0,,,,6,16,22,,,,,,,
100024661,2020-01-15 03:00,1.0,,,,2,2,4,,,,,,,
100024661,2020-01-15 04:00,1.0,,,,6,4,10,,,,,,,
100024661,2020-01-15 05:00,1.0,,,,15,31,46,,,,,,,
100024661,2020-01-15 06:00,1.0,,,,41,110,151,,,,,,,
100024661,2020-01-15 07:00,1.0,,,,149,278,427,,,,,,,
100024661,2020-01-15 08:00,1.0,,,,373,733,1106,,,,,,,
100024661,2020-01-15 09:00,1.0,,,,416,491,907,,,,,,,
100024661,2020-01-15 10:00,1.0,,,,169,247,416,,,,,,,
100024661,2020-01-15 11:00,1.0,,,,146,169,315,,,,,,,
100024661,2020-01-15 12:00,1.0,,,,163,174,337,,,,,,,
100024661,2020-01-15 13:00,1.0,,,,182,178,360,,,,,,,
100024661,2020-01-15 14:00,1.0,,,,239,196,435,,,,,,,
100024661,2020-01-15 15:00,1.0,,,,337,246,583,,,,,,,
100024661,2020-01-15 16:00,1.0,,,,339,246,585,,,,,,,
100024661,2020-01-15 17:00,1.0,,,,521,340,861,,,,,,,
100024661,2020-01-15 18:00,1.0,,,,589,433,1022,,,,,,,
100024661,2020-01-15 19:00,1.0,,,,316,332,648,,,,,,,
100024661,2020-01-15 20:00,1.0,,,,169,170,339,,,,,,,
100024661,2020-01-15 21:00,1.0,,,,131,159,290,,,,,,,
100024661,2020-01-15 22:00,1.0,,,,132,121,253,,,,,,,
100024661,2020-01-15 23:00,1.0,,,,61,66,127,,,,,,,
100024661,2020-01-16 00:00,1.0,,,,34,36,70,,,,,,,
100024661,2020-01-16 01:00,1.0,,,,8,22,30,,,,,,,
100024661,2020-01-16 02:00,1.0,,,,9,8,17,,,,,,,
100024661,2020-01-16 03:00,1.0,,,,6,4,10,,,,,,,
100024661,2020-01-16 04:00,1.0,,,,1,4,5,,,,,,,
100024661,2020-01-16 05:00,1.0,,,,13,33,46,,,,,,,
100024661,2020-01-16 06:00,1.0,,,,39,87,126,,,,,,,
100024661,2020-01-16 07:00,1.0,,,,141,278,419,,,,,,,
100024661,2020-01-16 08:00,1.0,,,,352,720,1072,,,,,,,
100024661,2020-01-16 09:00,1.0,,,,434,559,993,,,,,,,
100024661,2020-01-16 10:00,1.0,,,,195,234,429,,,,,,,
100024661,2020-01-16 11:00,1.0,,,,140,174,314,,,,,,,
100024661,2020-01-16 12:00,1.0,,,,183,188,371,,,,,,,
100024661,2020-01-16 13:00,1.0,,,,183,175,358,,,,,,,
100024661,2020-01-16 14:00,1.0,,,,230,189,419,,,,,,,
100024661,2020-01-16 15:00,1.0,,,,348,271,619,,,,,,,
100024661,2020-01-16 16:00,1.0,,,,386,262,648,,,,,,,
100024661,2020-01-16 17:00,1.0,,,,493,363,856,,,,,,,
100024661,2020-01-16 18:00,1.0,,,,561,478,1039,,,,,,,
100024661,2020-01-16 19:00,1.0,,,,308,331,639,,,,,,,
100024661,2020-01-16 20:00,1.0,,,,217,181,398,,,,,,,
100024661,2020-01-16 21:00,1.0,,,,144,164,308,,,,,,,
100024661,2020-01-16 22:00,1.0,,,,144,127,271,,,,,,,
100024661,2020-01-16 23:00,1.0,,,,78,87,165,,,,,,,
100024661,2020-01-17 00:00,1.0,,,,36,48,84,,,,,,,
100024661,2020-01-17 01:00,1.0,,,,23,15,38,,,,,,,
100024661,2020-01-17 02:00,1.0,,,,7,5,12,,,,,,,
100024661,2020-01-17 03:00,1.0,,,,11,6,17,,,,,,,
100024661,2020-01-17 04:00,1.0,,,,7,8,15,,,,,,,
100024661,2020-01-17 05:00,1.0,,,,23,26,49,,,,,,,
100024661,2020-01-17 06:00,1.0,,,,45,94,139,,,,,,,
100024661,2020-01-17 07:00,1.0,,,,110,249,359,,,,,,,
100024661,2020-01-17 08:00,1.0,,,,311,616,927,,,,,,,
100024661,2020-01-17 09:00,1.0,,,,336,497,833,,,,,,,
100024661,2020-01-17 10:00,1.0,,,,197,209,406,,,,,,,
100024661,2020-01-17 11:00,1.0,,,,161,161,322,,,,,,,
100024661,2020-01-17 12:00,1.0,,,,186,174,360,,,,,,,
100024661,2020-01-17 13:00,1.0,,,,198,219,417,,,,,,,
100024661,2020-01-17 14:00,1.0,,,,272,246,518,,,,,,,
100024661,2020-01-17 15:00,1.0,,,,363,259,622,,,,,,,
100024661,2020-01-17 16:00,1.0,,,,377,244,621,,,,,,,
100024661,2020-01-17 17:00,1.0,,,,412,286,698,,,,,,,
100024661,2020-01-17 18:00,1.0,,,,404,303,707,,,,,,,
100024661,2020-01-17 19:00,1.0,,,,298,271,569,,,,,,,
100024661,2020-01-17 20:00,1.0,,,,158,178,336,,,,,,,
100024661,2020-01-17 21:00,1.0,,,,115,126,241,,,,,,,
100024661,2020-01-17 22:00,1.0,,,,83,100,183,,,,,,,
100024661,2020-01-17 23:00,1.0,,,,80,85,165,,,,,,,
100024661,2020-01-18 00:00,1.0,,,,62,81,143,,,,,,,
100024661,2020-01-18 01:00,1.0,,,,18,42,60,,,,,,,
100024661,2020-01-18 02:00,1.0,,,,26,22,48,,,,,,,
100024661,2020-01-18 03:00,1.0,,,,24,21,45,,,,,,,
100024661,2020-01-18 04:00,1.0,,,,11,9,20,,,,,,,
100024661,2020-01-18 05:00,1.0,,,,13,14,27,,,,,,,
100024661,2020-01-18 06:00,1.0,,,,12,15,27,,,,,,,
100024661,2020-01-18 07:00,1.0,,,,18,24,42,,,,,,,
100024661,2020-01-18 08:00,1.0,,,,44,49,93,,,,,,,
100024661,2020-01-18 09:00,1.0,,,,65,72,137,,,,,,,
100024661,2020-01-18 10:00,1.0,,,,92,91,183,,,,,,,
100024661,2020-01-18 11:00,1.0,,,,134,94,228,,,,,,,
100024661,2020-01-18 12:00,1.0,,,,133,142,275,,,,,,,
100024661,2020-01-18 13:00,1.0,,,,174,189,363,,,,,,,
100024661,2020-01-18 14:00,1.0,,,,179,204,383,,,,,,,
100024661,2020-01-18 15:00,1.0,,,,163,178,341,,,,,,,
100024661,2020-01-18 16:00,1.0,,,,171,200,371,,,,,,,
100024661,2020-01-18 17:00,1.0,,,,169,151,320,,,,,,,
100024661,2020-01-18 18:00,1.0,,,,159,152,311,,,,,,,
100024661,2020-01-18 19:00,1.0,,,,122,122,244,,,,,,,
100024661,2020-01-18 20:00,1.0,,,,76,129,205,,,,,,,
100024661,2020-01-18 21:00,1.0,,,,77,97,174,,,,,,,
100024661,2020-01-18 22:00,1.0,,,,61,77,138,,,,,,,
100024661,2020-01-18 23:00,1.0,,,,54,60,114,,,,,,,
100024661,2020-01-19 00:00,1.0,,,,45,59,104,,,,,,,
100024661,2020-01-19 01:00,1.0,,,,49,59,108,,,,,,,
100024661,2020-01-19 02:00,1.0,,,,40,34,74,,,,,,,
100024661,2020-01-19 03:00,1.0,,,,23,23,46,,,,,,,
100024661,2020-01-19 04:00,1.0,,,,16,14,30,,,,,,,
100024661,2020-01-19 05:00,1.0,,,,12,11,23,,,,,,,
100024661,2020-01-19 06:00,1.0,,,,14,14,28,,,,,,,
100024661,2020-01-19 07:00,1.0,,,,14,7,21,,,,,,,
100024661,2020-01-19 08:00,1.0,,,,21,15,36,,,,,,,
100024661,2020-01-19 09:00,1.0,,,,34,39,73,,,,,,,
100024661,2020-01-19 10:00,1.0,,,,51,60,111,,,,,,,
100024661,2020-01-19 11:00,1.0,,,,59,69,128,,,,,,,
100024661,2020-01-19 12:00,1.0,,,,92,79,171,,,,,,,
100024661,2020-01-19 13:00,1.0,,,,109,78,187,,,,,,,
100024661,2020-01-19 14:00,1.0,,,,109,108,217,,,,,,,
100024661,2020-01-19 15:00,1.0,,,,92,127,219,,,,,,,
100024661,2020-01-19 16:00,1.0,,,,100,107,207,,,,,,,
100024661,2020-01-19 17:00,1.0,,,,103,111,214,,,,,,,
100024661,2020-01-19 18:00,1.0,,,,113,93,206,,,,,,,
100024661,2020-01-19 19:00,1.0,,,,70,101,171,,,,,,,
100024661,2020-01-19 20:00,1.0,,,,60,67,127,,,,,,,
100024661,2020-01-19 21:00,1.0,,,,59,61,120,,,,,,,
100024661,2020-01-19 22:00,1.0,,,,52,52,104,,,,,,,